LUCH-5A

Last updated on Thu Nov 21 2024 00:02:41 GMT+0000 (Coordinated Universal Time)

1 37951U 11074B 24325.56803042 -.00000046 00000+0 00000+0 0 9991 2 37951 7.2870 82.4940 0005007 152.5312 196.6223 1.00268345 47299
UTC large
Height (km)
Speed (km/s)
/
Latitude / Longitude
Inclination (degrees)
Orbital Period (minutes)
Azimuth
Elevation
Range (km)
Doppler Factor

Next 0 passes for location: London (51.5072 / 0.1276)

Sorry there are no passes over London.